Location: Burland Observatory
(39.4088°N, 105.4217°W)
Time: 14:31:47
(UTC-07:00)

S-56A Canister/Altair - Pass Details

Date: 17 December 2019
Orbit: 634 x 2498 km, 38.9° (Epoch: 20 January)

Event Time Altitude Azimuth Distance (km) Brightness Sun altitude
Rises 04:53:10 0° 175° (S) 4,445 11.6 -26.7°
Reaches altitude 10° 04:57:53 10° 152° (SSE) 3,862 11.5 -25.8°
Maximum altitude 05:02:45 14° 124° (ESE) 3,880 11.9 -24.8°
Drops below altitude 10° 05:08:21 10° 96° (E) 4,590 12.6 -23.8°
Sets 05:14:58 0° 77° (ENE) 5,919 13.1 -22.5°
